Regional Weather Roundup
Issued by NWS

Home | Current Version | Previous Version | Text Only | Print | Product List | Glossary On
Versions: 1 2 3 4 5 6 7 8 9 10 11 12 13 14 15 16 17 18 19 20 21 22 23 24 25 26 27 28 29 30 31 32 33 34 35 36 37 38 39 40 41 42 43 44 45 46 47 48 49 50
000
ASUS43 KFSD 091910
RWRSD

WEATHER ROUNDUP FOR SOUTH DAKOTA
NATIONAL WEATHER SERVICE SIOUX FALLS SD
200 PM CDT WED JUL 09 2014

NOTE: "FAIR" INDICATES FEW OR NO CLOUDS BELOW 12,000 FEET WITH NO
SIGNIFICANT WEATHER AND/OR OBSTRUCTIONS TO VISIBILITY.


SDZ001>005-009-010-012>017-092000-
NORTHWEST AND NORTH CENTRAL SOUTH DAKOTA

CITY           SKY/WX    TMP DP  RH WIND       PRES   REMARKS
BUFFALO          N/A     82  50  32 SE8       29.96F
FAITH            N/A     80  54  40 S12G17    30.02F
MOBRIDGE       SUNNY     78  55  44 S7        30.00F HAZE
$$

SDZ012>016-024>037-041>051-057-063-072>074-092000-
SOUTHWEST AND SOUTH CENTRAL SOUTH DAKOTA

CITY           SKY/WX    TMP DP  RH WIND       PRES   REMARKS
RAPID CTY ARPT SUNNY     77  55  46 SE13G22   30.04F
PIERRE         MOSUNNY   81  50  33 E7        30.00F
CUSTER         SUNNY     70  53  54 E9        30.14F
ELLSWORTH AFB  MOSUNNY   78  56  46 SE13      30.04F
PHILIP         CLOUDY    78  52  40 SE14      30.01F
PINE RIDGE     MOSUNNY   82  58  43 VRB3      29.99F
WINNER         CLOUDY    73  54  51 S17G23    30.03F
$$

SDZ004>011-016>023-039-040-092000-
NORTHEAST SOUTH DAKOTA

CITY           SKY/WX    TMP DP  RH WIND       PRES   REMARKS
ABERDEEN       SUNNY     74  55  51 VRB7      30.03F
WATERTOWN      MOSUNNY   76  52  43 VRB5      30.03F
SISSETON         N/A     75  54  47 VRB5      30.02F
$$

SDZ017-020-022-023-036>040-048>070-092000-
SOUTHEAST SOUTH DAKOTA

CITY           SKY/WX    TMP DP  RH WIND       PRES   REMARKS
SIOUX FALLS    PTSUNNY   80  54  40 W8        30.03F
HURON          MOSUNNY   80  56  43 VRB3      30.01F HAZE
CHAMBERLAIN    SUNNY     80  53  39 CALM      30.02F
MITCHELL       MOSUNNY   81  58  45 W8        30.02F
YANKTON        SUNNY     79  59  50 W7        30.04F
$$

ABBREVIATIONS USED IN REMARKS
   TC - TEMPERATURE IN CELSIUS
  WCI - WIND CHILL INDEX
   HX - HEAT INDEX
  VSB - VISIBILITY



USA.gov is the U.S. government's official web portal to all federal, state and local government web resources and services.